sat.trackr.live / text

‹ back to catalog

ONEWEB-0268

NORAD 48986 · 2021-060V

PAYLOAD ACTIVE UNKNOWN

§ Identity

Operator
Country
UK
Launch date
2021-07-01
Launch site
VOSTO
Launch vehicle
Mass (kg)
RCS (m²)

Purposes: comms

External: N2YO · Heavens-Above · Gunter

§ Orbital elements

Epoch: 2026-09-20T04:21:04.341600Z

Period
109.37 min
Inclination
87.9156°
Eccentricity
0.0002156
Mean motion
13.16594122 rev/d
Perigee alt
1,196.1 km
Apogee alt
1,199.4 km
Semi-major
7,575.9 km
B*
1.3858e-4
RAAN
209.9213°
Arg perigee
78.8664°
Mean anomaly
281.2709°
Rev number
25,235

§ Raw data

ONEWEB-02681 48986U 21060V   26263.18130025  .00000066  00000+0  13858-3 0  99922 48986  87.9156 209.9213 0002156  78.8664 281.2709 13.16594122252352

JSON: /api/v1/satellites/48986 · /tle

For live sub-satellite position, see the globe view (requires WebGL).

§ Visibility from observer

Set your observer location to see the next 7 days of passes ≥ 10°. The values pass through the URL so the page stays shareable.

No JS? Fill the form by hand. The geolocation button needs JavaScript.